Regional Weather Roundup
Issued by NWS Sterling, VA

Home | Current Version | Previous Version | Graphics & Text | Print | Product List | Glossary On
Versions: 1 2 3 4 5 6 7 8 9 10 11 12 13 14 15 16 17 18 19 20 21 22 23 24 25 26 27 28 29 30 31 32 33 34 35 36 37 38 39 40 41 42 43 44 45 46 47 48 49 50
000
ASUS41 KLWX 281310
RWRLWX

REGIONAL WEATHER ROUNDUP
NATIONAL WEATHER SERVICE BALTIMORE MD/WASHINGTON DC
800 AM EST SUN DEC 28 2014

Note: "FAIR" indicates few or no clouds below 12,000 feet
with no significant weather and/or obstructions to visibility.
 TC=TEMPERATURE CELSIUS

 * =Non NWS site. Station does not report precipitation (e.g. rain,
    snow, etc.), thunder, or fog.

DCZ001-MDZ009-015-VAZ040>042-051-053>054-281400-
WASHINGTON METRO

CITY           SKY/WX    TMP DP  RH WIND       PRES   REMARKS
WASHINGTON NAT CLOUDY    52  38  58 CALM      29.97R
DULLES         CLOUDY    44  39  82 CALM      29.96R
ANDREWS AFB    CLOUDY    50  39  66 W3        29.96R
FT BELVOIR     LGT RAIN  45  39  81 CALM      29.97R
QUANTICO       CLOUDY    49  39  68 CALM      29.97R
COLLEGE PARK*  CLOUDY    45  41  87 CALM      29.96R
LEESBURG*      CLOUDY    43  37  81 CALM      29.97R
MANASSAS*      CLOUDY    48  41  76 N5        29.96R
GAITHERSBURG*  CLOUDY    45  37  76 CALM      29.99R

$$

MDZ006>007-011-014-281400-
BALTIMORE METRO

CITY           SKY/WX    TMP DP  RH WIND       PRES   REMARKS
BWI AIRPORT    LGT RAIN  43  37  79 CALM      29.95R
MD SCIENCE CTR   N/A     45  39  79 MISG      29.95
MARTIN STATE   PTCLDY    43  43 100 CALM      29.97R
ANNAPOLIS      CLOUDY    43  40  89 CALM      29.96R
FORT MEADE*    CLOUDY    41  37  87 CALM      29.98R

$$

MDZ012-015-019>023-281400-
MARYLAND EASTERN SHORE

CITY           SKY/WX    TMP DP  RH WIND       PRES   REMARKS
OCEAN CITY     CLOUDY    49  40  71 SW10      29.98S
SALISBURY      CLOUDY    52  40  63 S14       29.95F
BAY BRIDGE AP*   N/A     45  39  81 CALM      29.97R
CAMBRIDGE*     CLOUDY    52  41  66 SW3       29.95R
EASTON*        PTCLDY    50  41  71 SW6       29.99R

$$

MDZ017>025-281400-
SOUTHERN MARYLAND

CITY           SKY/WX    TMP DP  RH WIND       PRES   REMARKS
PATUXENT RIVER CLOUDY    54  37  52 SW13G22   29.93F
ST INIGOES     CLOUDY    52  38  58 S12       29.94F
LEONARDTOWN*   CLOUDY    52  37  58 SW14      29.96S

$$

MDZ003>005-281400-
NORTH CENTRAL MARYLAND

CITY           SKY/WX    TMP DP  RH WIND       PRES   REMARKS
FREDERICK*     MOCLDY    46  36  66 S5        29.97R
HAGERSTOWN APT CLOUDY    52  41  66 W17       29.93R
WESTMINSTER*   CLOUDY    46  37  71 SW6       29.93R

$$

MDZ501>502-281400-
WESTERN MARYLAND

CITY           SKY/WX    TMP DP  RH WIND       PRES   REMARKS
OAKLAND*       CLOUDY    39 N/A N/A W8G16     29.97S FOG
CUMBERLAND*    CLOUDY    52  43  71 W5        30.01R

$$

VAZ025>031-281400-
SHENANDOAH VALLEY

CITY           SKY/WX    TMP DP  RH WIND       PRES   REMARKS
WINCHESTER*    CLOUDY    46  32  57 S5        29.94S
FRONT ROYAL*   CLOUDY    48  34  57 CALM      29.95R
LURAY*         PTSUNNY   50  37  62 CALM      29.95R
NEW MARKET*    FAIR      46  35  64 CALM      29.95R
STAUNTON*      CLOUDY    55  38  54 S8        29.97R
WAYNESBORO*    FAIR      54  37  52 SW6       29.97R

$$

WVZ021-048>050-054>055-281400-
EASTERN WEST VIRGINIA PANHANDLE

CITY           SKY/WX    TMP DP  RH WIND       PRES   REMARKS
MARTINSBURG    CLOUDY    48  31  51 CALM      29.95R
PETERSBURG*    CLOUDY    56  40  55 S6        29.96R

$$

VAZ036>039-050-281400-
CENTRAL FOOTHILLS

CITY           SKY/WX    TMP DP  RH WIND       PRES   REMARKS
CHARLOTTESVILL CLOUDY    50  36  58 S8        29.95R
CULPEPER*      CLOUDY    46  41  81 CALM      29.96R
ORANGE*        CLOUDY    52  37  58 S5        29.97R
GORDONSVILLE*  PTSUNNY   48  38  68 SW5       29.96R
WARRENTON*     CLOUDY    49  44  80 CALM      29.95R

$$

VAZ055>057-281400-
NORTH AND CENTRAL PIEDMONT

CITY           SKY/WX    TMP DP  RH WIND       PRES   REMARKS
FREDERICKSBRG* CLOUDY    55  39  55 SW7       29.95R
STAFFORD*      CLOUDY    53  37  53 SW3       29.99R

$$

NCZ024-NYZ072-PAZ021-071-VAZ022-071-281400-
OTHER REGIONAL OBSERVATIONS

CITY           SKY/WX    TMP DP  RH WIND       PRES   REMARKS
NEW YORK CITY  LGT RAIN  45  39  79 CALM      29.92F
PHILADELPHIA   CLOUDY    44  39  82 W6        29.94F
PITTSBURGH     DRIZZLE   39  37  92 N15       30.01R FOG
ROANOKE        CLOUDY    53  32  44 W3        30.02R
RICHMOND       CLOUDY    52  39  61 S12       29.99F
RALEIGH        CLOUDY    54  48  80 SW8       30.06F

$$

ANZ530>537-281400-
MARINE OBSERVATIONS

STATION/POSITION TIME  TEMP    WIND        PRES
                       AIR SEA DIR/SP/G
                 (UTC) (F)     (DEG/KT/KT) (MB)
THOMAS PT LIGHT  1300   48 43   CALM  /  2 1015.9R
BALT KEY BRIDGE  1300   43     160/  1/  2 1013.9R
COVE POINT       1300   54     240/ 20/ 26 1013.2F
LEWISETTA        1300   54 44  220/ 18/ 23 1014.0F
SOLOMONS ISLAND  1300      44                N/A
PINEY POINT      1300          260/  6/  9   N/A

$$




USA.gov is the U.S. government's official web portal to all federal, state and local government web resources and services.